STARLINK-5677 (55463 NORAD) Tracking and Keplerian Element Data

This shows tracking and keplerian element data for the satellite.

Feedback or suggestion? Click here.




ElementValue
Catalog55463
NameSTARLINK-5677
Epoch Orbit831
Epoch Day85.25001157
Epoch Year2023
RAAN76.7459
Inclination43.0007
Eccentricity0.0001315
Argument of Perigee274.4369
Mean Anonmoly143.0826
Mean Motion15.48934773
Decay Rate-0.00063087
L11 55463U 23015Q 23085.25001157 -.00063087 00000+0 -11430-2 0 9999
L22 55463 43.0007 76.7459 0001315 274.4369 143.0826 15.48934773 8319



Live tracking and technical data element details for STARLINK-5677 (NORAD 55463). STARLINK-5677 can be tracked NOW for your location showing map with azimuth and elevation plus other details from your city location.







IsCatalogInMostPopularTable: catalog: 55463, numindb: -1

Insert: records affected: 1


GetName: 55463 STARLINK-5677

Hit Count: inserted at: Tue, 28 Mar 2023 01:42:33 GMT